This demonstration page uses our WeatherBlox Daily Observations layout. Learn more.

Left ArrowRight Arrow

36.17497, -115.13722

Hourly Observations for October 8, 2021

Temp ( °F °C ) Dew Point ( °F °C ) Humidity (%) Winds ( mph kmh ) Pressure ( in mb ) Visibility ( mi km ) Precip ( " mm )
12:53 am 00:53 Clear 76 24.4 48 8.9 37 37 SE 7 11 29.87 1012 10 16 0.00 0.00
1:53 am 01:53 Clear 76 24.4 45 7.2 33 33 VRB 7 11 29.87 1012 10 16 0.00 0.00
2:53 am 02:53 Clear 76 24.4 45 7.2 33 33 SSW 7 11 29.87 1011 10 16 0.00 0.00
3:53 am 03:53 Partly Cloudy 77 25 41 5 28 28 SSW 8 13 29.87 1012 10 16 0.00 0.00
4:53 am 04:53 Partly Cloudy 77 25 40 4.4 26 26 SSW 16 26 29.88 1012 10 16 0.00 0.00
5:53 am 05:53 Cloudy with Light Rain 70 21.1 50 10 49 49 S 22 35 29.91 1013 10 16 0.00 0.00
6:53 am 06:53 Sunny 69 20.6 50 10 51 51 SSW 14 22 29.91 1013 10 16 0.00 0.00
7:53 am 07:53 Partly Cloudy with Light Rain 69 20.6 50 10 51 51 ESE 6 9 29.94 1014 10 16 0.00 0.00
8:53 am 08:53 Cloudy with Light Rain 67 19.4 55 12.8 66 66 ESE 6 9 29.95 1014 10 16 0.00 0.00
9:53 am 09:53 Cloudy with Light Rain 66 18.9 56 13.3 70 70 E 7 11 29.95 1014 10 16 0.00 0.00
10:53 am 10:53 Cloudy with Light Rain 65 18.3 57 13.9 76 76 E 5 7 29.98 1015 10 16 0.00 0.00
11:53 am 11:53 Cloudy 66 18.9 59 15 78 78 VRB 5 7 29.96 1015 10 16 0.00 0.00
12:53 pm 12:53 Cloudy 69 20.6 58 14.4 68 68 SE 12 19 29.92 1013 10 16 0.00 0.00
1:53 pm 13:53 Partly Cloudy 73 22.8 52 11.1 48 48 S 20 31 29.88 1012 10 16 0.00 0.00
2:53 pm 14:53 Sunny 76 24.4 43 6.1 31 31 WSW 20 31 29.85 1011 10 16 0.00 0.00
3:53 pm 15:53 Sunny 76 24.4 42 5.6 30 30 WSW 20 31 29.84 1010 10 16 0.00 0.00
4:53 pm 16:53 Sunny 75 23.9 42 5.6 31 31 SW 17 28 29.82 1010 10 16 0.00 0.00
5:53 pm 17:53 Sunny 73 22.8 41 5 32 32 SSW 9 15 29.84 1011 10 16 0.00 0.00
6:53 pm 18:53 Clear 72 22.2 40 4.4 31 31 S 14 22 29.85 1011 10 16 0.00 0.00
7:53 pm 19:53 Clear 71 21.7 40 4.4 32 32 SSW 17 28 29.86 1011 10 16 0.00 0.00
8:53 pm 20:53 Clear 69 20.6 41 5 36 36 SSW 14 22 29.88 1012 10 16 0.00 0.00
9:53 pm 21:53 Clear 67 19.4 42 5.6 41 41 S 13 20 29.89 1012 10 16 0.00 0.00
10:53 pm 22:53 Clear 66 18.9 42 5.6 42 42 SSW 10 17 29.90 1013 10 16 0.00 0.00
11:53 pm 23:53 Clear 65 18.3 42 5.6 43 43 WSW 5 7 29.92 1013 10 16 0.00 0.00

Powered by AerisWeather